TJS-3

Last updated on Jan. 17, 2021, 6:29 a.m. UTC

1 43874U 18110A   21016.80026559 -.00000199  00000-0  00000-0 0  9992
2 43874   0.0462 221.8725 0001396 148.5410 124.8974  1.00078156  7593
UTC
Height (km)
Latitude
Longitude
Inclination
Orbital Period
UTC large
Height (km)
Speed (km/s)
/
Latitude / Longitude
Inclination (degrees)
Orbital Period (minutes)
Azimuth
Elevation
Range (km)
Doppler Factor
iOS Compass Heading
iOS Angle

Next 30 passes for location: Hong Kong

Rise time Rise Azimuth (degrees) Set time Set Azimuth (degrees) Duration Max altitude (degrees)

No matching passes for this satellites